Location: Valdosta
(30.8330°N, 83.2790°W)
Time: 12:37:09
(UTC-04:00)

Daily predictions for brighter satellites

Satellite Brightness Start Highest point End
(mag) Time Altitude Azimuth Time Altitude Azimuth Time Altitude Azimuth
COSMOS 2455 3.0 20:47:45 10° NNW 20:53:47 84° WSW 20:59:46 10° SSE
Cosmos 1441 Rocket 4.4 20:52:07 10° SE 20:55:03 22° E 20:58:01 10° NE
Tiangong 2 4.1 20:58:13 10° NW 20:59:59 14° NNW 21:01:45 10° NNE
Cosmos 1680 Rocket 3.5 20:56:26 10° SSW 21:01:39 83° ESE 21:06:53 10° NNE
Meteor 1-19 Rocket 4.3 20:57:25 10° S 21:03:07 61° E 21:08:46 10° NNE
Aureole 1 Rocket 2.2 21:00:50 10° S 21:04:18 67° ESE 21:07:20 10° NNE
Cosmos 1346 2.8 21:02:30 10° S 21:05:12 59° E 21:07:56 10° NNE
Helios 1B rocket 3.1 21:02:04 10° NNE 21:05:53 35° E 21:09:40 10° SSE
USA 81 4.0 21:02:30 10° S 21:07:45 74° E 21:13:01 10° N
Envisat 3.8 21:04:07 10° SE 21:08:40 35° ENE 21:13:15 10° N
Cosmos 2082 Rocket 3.7 21:09:41 10° SE 21:13:04 16° E 21:16:26 10° ENE
ASTRO E2 3.0 21:10:29 10° W 21:14:23 54° SSW 21:17:41 14° ESE
COSMOS 2406 4.1 21:10:49 10° SW 21:16:24 54° WNW 21:21:59 10° N
DNEPR-1 R/B 4.3 21:12:34 10° NNW 21:16:41 41° ENE 21:20:36 14° SE
ALOS 4.2 21:12:58 10° SSW 21:17:03 30° W 21:21:08 10° NW
Cosmos 1536 Rocket 4.3 21:14:39 10° SSW 21:18:53 55° W 21:23:07 10° N
Okean 1-7 Rocket 4.1 21:16:03 10° SSE 21:20:09 38° E 21:24:20 10° NNE
YAOGAN 6 4.4 21:19:55 13° E 21:21:23 16° ENE 21:23:37 10° NNE
Okean 2 4.5 21:20:11 13° SE 21:23:01 25° E 21:26:22 10° NE
Cosmos 1743 2.7 21:22:00 10° N 21:25:54 77° E 21:29:48 10° S
Cosmos 1025 Rocket 3.4 21:24:14 10° SSE 21:28:14 41° E 21:32:15 10° NNE
GPS 2-14 Rocket1 4.3 21:25:57 10° SW 21:28:34 18° S 21:29:51 15° SSE
CZ-4B DEB 3.6 21:28:47 21° ESE 21:30:02 29° ENE 21:32:41 10° NNE
USA 186 2.6 21:35:07 10° S 21:38:13 47° W 21:41:15 10° NNW
COSMOS 2487 3.5 21:37:46 24° ESE 21:38:24 25° E 21:41:22 10° NE
Cosmos 405 3.6 21:36:52 10° N 21:40:12 38° E 21:41:35 26° SE
Cosmos 1666 2.5 21:39:31 10° N 21:43:16 83° E 21:45:57 18° S
ERS-1 Rocket 3.9 21:41:26 20° ESE 21:43:51 31° ENE 21:48:12 10° N
SJ-11-01 4.3 21:40:57 17° SSE 21:44:29 68° ENE 21:49:09 10° N
Cosmos 1656 Rocket 4.2 21:39:16 10° NNW 21:44:37 56° WSW 21:50:00 10° S
CENTAUR R/B 3.4 21:36:49 10° NW 21:44:57 71° WSW 21:52:34 13° SSE
Cosmos 1833 Rocket 3.4 21:42:26 17° SSE 21:45:52 31° ESE 21:50:44 10° NE
Cosmos 1238 Rocket 4.1 21:40:54 10° S 21:47:38 87° E 21:54:11 10° N
Meteor 2-9 Rocket 4.2 21:42:34 10° N 21:48:06 67° E 21:52:21 18° SSE
OAO 2 Rocket 3.6 21:46:17 10° WNW 21:51:09 60° N 21:54:39 19° E
Cosmos 1371 Rocket 4.4 21:46:27 10° N 21:51:34 48° ENE 21:54:08 27° SE
Cosmos 2074 Rocket 4.3 21:52:52 10° NNW 21:59:04 69° W 22:05:17 10° S
Cosmos 2181 Rocket 4.3 21:58:24 23° SSE 22:02:08 47° E 22:08:08 10° NNE
ASTEX 1 3.3 22:00:40 24° SSE 22:03:40 78° E 22:08:33 10° N
Cosmos 1939 Rocket 3.0 22:01:45 23° S 22:03:59 65° W 22:07:49 10° NNW
Cosmos 1610 Rocket 4.4 21:58:20 10° N 22:04:36 86° E 22:09:03 20° S
Meteor 1-29 4.3 22:01:32 10° N 22:04:41 38° WNW 22:07:49 10° SW
Cosmos 2184 Rocket 4.4 21:58:28 10° NNW 22:04:43 64° W 22:10:51 10° S
Cosmos 1437 Rocket 2.9 22:04:54 10° N 22:08:42 54° E 22:09:19 48° ESE
Cosmos 1515 3.6 22:09:19 49° SSE 22:10:07 65° E 22:13:53 10° NNE
Intercosmos 24 3.5 22:07:10 10° N 22:10:42 71° E 22:11:24 53° SSE
Resurs 01 Rocket 4.3 22:09:26 10° SW 22:12:08 16° W 22:14:51 10° WNW
PSLV R/B 3.7 22:13:58 10° NW 22:16:58 48° NNE 22:16:58 48° NNE
Hubble Space Telescope 1.3 22:13:37 10° WSW 22:17:02 41° S 22:17:02 41° S
Helios 1A 4.5 22:18:20 15° SSW 22:21:14 33° W 22:25:02 10° NW
ARGOS 3.7 22:20:51 37° ESE 22:22:04 42° ENE 22:27:09 10° N
Meteor 2-19 Rocket 4.4 22:18:03 10° N 22:24:10 70° E 22:26:33 39° SSE
Cosmos 1980 Rocket 4.2 22:22:23 10° NNE 22:24:48 13° ENE 22:25:49 12° ENE
Cosmos 962 Rocket 4.4 22:19:50 10° N 22:26:02 69° E 22:28:18 40° SSE
Cosmos 1624 Rocket 4.0 22:28:50 10° NNW 22:34:08 78° WSW 22:35:41 47° S
Cosmos 2228 3.5 22:32:12 10° N 22:35:49 45° ENE 22:35:49 45° ENE
Cosmos 921 Rocket 2.9 22:32:34 10° N 22:37:00 71° ENE 22:37:02 71° E
MetOp-B 4.0 22:36:14 53° SSE 22:37:30 79° ENE 22:42:52 10° N
NOAA 11 4.1 22:35:58 49° SSE 22:37:32 88° ENE 22:42:59 10° NNW
H-2A R/B 2.8 22:38:01 34° ENE 22:38:01 34° ENE 22:42:31 10° N
Mugunghwa Rocket 4.5 22:30:47 10° WSW 22:39:09 64° S 22:42:07 40° ESE
SL-8 Rocket 4.1 22:36:58 10° N 22:43:08 56° E 22:44:11 50° ESE
CZ-3A R/B 4.4 22:47:01 10° W 22:48:16 11° WNW 22:49:13 10° NW
Cosmos 2366 rocket 4.3 22:44:09 10° N 22:50:00 45° E 22:50:17 44° E
Cosmos 2056 Rocket 4.0 22:48:45 10° NNW 22:53:44 52° WSW 22:54:40 45° SW
Terra 3.4 22:55:30 23° NE 22:55:30 23° NE 22:58:24 10° NNE
Cosmos 1602 Rocket 4.4 22:57:24 41° NNE 22:57:24 41° NNE 23:00:20 10° NNE
Cosmos 2082 Rocket 2.9 22:51:08 10° SW 22:56:38 51° WNW 23:02:08 10° N
Cosmos 1269 Rocket 4.2 23:01:06 60° ENE 23:01:06 60° ENE 23:05:39 10° NNE
Cosmos 2278 3.7 22:58:59 10° NNW 23:04:39 72° WSW 23:05:10 67° SSW
SPOT 5 3.1 23:07:20 57° WNW 23:07:20 57° WNW 23:11:04 10° NNW
Cosmos 1048 Rocket 4.1 23:08:12 67° NNE 23:08:12 67° NNE 23:12:40 10° NNE
Cosmos 1959 Rocket 4.3 23:04:59 10° N 23:11:22 81° E 23:11:51 75° SE
DMSP B5D2-2 4.1 23:07:17 10° NNE 23:11:58 69° NE 23:11:58 69° NE
SL-08 RB Rocket 4.3 23:16:19 52° NW 23:16:19 52° NW 23:19:59 10° NNW
Cosmos 1656 3.6 23:13:18 10° NNW 23:18:29 76° WNW 23:18:29 76° WNW
Meteor 1-22 Rocket 4.3 23:14:42 10° N 23:19:21 64° NNE 23:19:21 64° NNE
Cosmos 1697 Rocket 2.8 23:14:31 10° NNW 23:19:38 67° NNE 23:19:38 67° NNE
Lacrosse 5 4.4 23:25:30 11° NE 23:25:30 11° NE 23:25:42 10° NE
Cosmos 1809 Rocket 4.3 23:15:09 10° N 23:21:15 89° W 23:21:21 87° SSW
Timation 2 Rocket 4.5 23:20:08 29° SW 23:23:21 57° WNW 23:29:27 10° NNE
Cosmos 2369 4.3 23:19:46 10° NNW 23:25:11 46° WSW 23:25:22 46° WSW
Cosmos 1452 Rocket 3.8 23:20:21 10° NNW 23:25:00 64° WNW 23:25:00 64° WNW
SL-08 R/B 4.4 23:22:55 10° N 23:29:03 82° W 23:29:03 82° W
SPOT 1/Viking Rocket 4.0 23:30:09 55° WNW 23:30:09 55° WNW 23:34:43 10° NNW
SL-16 R/B 4.2 23:26:34 10° NNE 23:29:33 16° NE 23:29:33 16° NE
Cosmos 2218 Rocket 4.1 23:27:17 10° NNW 23:33:23 64° W 23:33:41 63° WSW
H-2A R/B 3.7 23:48:48 33° NNW 23:48:48 33° NNW 23:51:19 10° NNW
Nadezhda 3 Rocket 4.2 23:53:47 71° NNW 23:53:47 71° NNW 23:59:27 10° N
